Theta_e
316 318 319 322 328 329 329 330 332 333 333 333 330 332 334 333 333 333 332 332 334 329 323 321 320 322 324 324 320 315 311 316 318 321 323 308 302 302 299 303 310 315 318 321 323 323 325 325 326 328 328 327 327 326 325 324 323 323 322 323 323 321 322 323 323 323 322 322 323 324 324 324 324 323 323 322 321 321 321 322 321 321 322 322 322 322 323 323 323 323 323 324 324 322 320 319 317
316 319 321 324 327 329 329 329 332 332 332 332 329 332 333 333 333 332 331 331 331 323 317 315 315 315 315 315 314 315 311 306 306 309 307 300 302 302 300 303 308 312 315 320 321 322 324 323 325 326 327 327 326 326 325 324 323 323 322 322 322 322 323 323 323 322 321 322 323 323 324 324 324 323 323 322 321 321 322 322 322 321 321 321 321 322 321 320 322 323 323 324 324 322 320 319 317
317 321 325 326 327 329 330 331 333 331 332 330 328 331 332 332 331 330 330 330 326 317 315 314 314 312 314 319 315 317 312 303 302 304 303 299 300 300 300 303 306 309 312 317 318 321 323 322 323 323 325 325 325 325 325 324 323 322 322 322 322 322 322 322 323 322 321 322 323 323 323 323 323 323 322 322 321 321 322 322 322 321 322 321 321 321 321 320 321 323 324 324 323 322 320 319 317
319 322 325 325 327 329 332 332 333 332 331 328 328 331 331 331 329 329 325 323 320 315 316 315 313 307 311 318 310 311 307 302 301 300 302 298 296 296 297 301 304 306 312 315 315 318 320 320 321 320 321 321 322 323 324 324 323 322 322 322 322 321 321 321 322 322 322 322 322 322 323 323 323 322 322 322 321 321 321 321 321 321 322 322 321 321 321 321 321 322 323 323 323 322 320 319 318
321 324 324 326 328 330 332 333 333 332 330 328 328 330 330 330 328 326 318 316 317 316 316 315 313 306 306 307 304 308 304 302 301 298 299 297 294 294 294 297 298 303 310 312 310 313 316 317 318 318 318 318 319 319 320 322 322 322 322 322 322 321 322 321 322 322 321 321 321 322 322 322 322 321 321 321 321 321 321 321 321 321 321 321 321 320 321 321 321 321 323 323 322 322 321 319 318
323 324 324 326 327 327 331 331 330 330 330 330 330 329 329 327 325 322 315 315 316 315 314 314 313 309 305 301 300 302 299 301 302 296 297 295 294 294 294 295 296 300 306 309 308 309 312 314 314 315 315 315 316 315 316 317 318 319 319 321 321 321 321 321 322 322 322 322 321 321 321 321 322 321 321 321 321 321 321 321 320 320 320 320 320 320 320 321 321 321 322 323 322 322 322 320 318
323 324 324 325 325 326 329 329 327 329 328 329 329 328 328 323 319 319 317 316 316 312 312 311 310 310 307 301 300 298 296 298 298 295 294 294 293 293 294 295 296 297 301 306 306 305 308 310 311 312 312 313 313 313 313 313 314 314 315 316 317 319 319 320 320 320 321 321 321 322 321 321 321 321 321 321 320 321 320 320 320 319 320 320 320 320 320 320 321 321 321 322 322 322 321 320 319
321 323 323 324 325 327 328 328 328 328 327 326 326 326 325 319 315 318 319 317 315 312 310 309 308 313 308 301 301 297 295 295 294 294 293 293 293 293 293 294 295 295 296 299 302 304 305 306 307 308 308 309 310 310 310 310 311 310 311 311 313 315 316 317 317 317 317 318 319 320 320 321 321 321 322 321 320 320 320 320 319 319 319 319 320 320 320 320 320 320 320 320 321 321 321 320 319
319 322 322 322 325 326 326 326 327 326 325 324 323 323 320 315 314 317 318 315 312 310 308 307 308 313 307 301 301 297 295 294 293 293 292 293 292 292 292 292 293 293 293 294 297 300 301 301 303 305 305 305 306 306 307 308 308 307 308 308 308 309 311 313 313 313 313 314 316 317 318 319 320 320 321 321 320 320 320 319 319 319 319 319 319 320 320 319 319 319 319 319 320 321 321 320 320
318 320 322 322 323 323 322 323 324 323 322 321 319 318 315 312 313 314 316 313 310 310 306 304 307 309 305 302 300 297 296 294 293 293 291 291 291 291 291 291 291 292 292 292 292 294 296 297 299 300 300 301 302 303 304 304 305 305 305 305 306 306 307 308 308 308 309 310 312 312 314 315 317 318 318 319 320 320 320 320 319 319 318 319 319 319 319 319 319 318 318 318 319 321 321 321 320
318 318 319 320 320 319 318 319 319 320 318 316 315 313 310 309 311 312 313 311 308 309 306 304 307 305 302 301 298 295 294 293 293 292 291 291 290 290 290 290 291 291 291 291 291 291 292 294 294 295 295 296 296 297 299 300 300 301 302 302 303 303 304 304 304 304 304 306 307 308 310 311 313 314 315 316 318 318 320 319 319 319 318 318 318 318 318 318 318 317 317 317 318 319 319 320 320
317 318 318 317 318 316 316 317 316 316 314 314 313 310 307 307 310 311 312 311 307 308 305 304 306 304 302 301 297 295 294 293 292 291 291 290 290 290 290 290 290 290 290 290 290 290 290 291 291 291 292 292 292 292 293 294 295 296 297 297 298 299 299 300 301 300 298 299 300 302 305 306 307 309 311 312 314 316 318 318 318 318 318 319 318 318 318 317 317 317 317 317 317 318 317 318 320
316 317 317 316 316 316 316 316 315 314 313 313 312 307 305 307 308 309 310 309 307 308 304 301 303 303 302 299 296 295 294 292 291 291 290 290 290 289 290 289 289 289 289 290 289 289 289 289 290 290 290 291 291 290 290 290 291 292 293 293 293 294 294 295 296 295 294 295 294 295 298 299 300 303 305 308 311 313 315 316 317 317 318 318 318 318 318 317 316 316 317 317 317 317 316 316 319
316 316 315 315 315 315 315 314 314 313 312 311 309 306 305 305 304 305 307 308 306 303 301 298 300 302 301 298 296 295 294 292 291 290 290 290 290 289 289 289 289 289 289 289 289 289 289 289 289 289 289 289 290 290 289 289 289 289 290 290 291 291 291 291 292 292 292 292 292 292 293 294 294 295 297 300 303 308 311 313 314 315 316 316 317 318 317 316 315 316 316 316 316 317 317 316 318
314 314 313 314 314 313 314 313 312 311 310 309 307 305 305 302 302 304 303 305 303 297 298 297 297 301 301 300 298 295 293 291 290 290 290 290 290 290 289 289 289 288 288 288 288 288 288 288 288 288 288 288 288 288 288 288 288 289 289 289 289 290 291 291 291 291 291 290 290 291 291 292 292 292 292 294 295 298 302 306 308 310 312 313 314 315 315 316 315 317 317 316 316 317 317 315 317
312 312 312 313 313 312 312 311 311 310 309 308 304 304 307 303 301 303 299 301 300 296 297 297 295 298 299 299 297 294 292 291 290 290 290 291 290 290 290 289 289 288 288 288 288 288 288 288 287 287 287 287 287 287 288 288 288 288 288 288 288 289 289 290 291 291 291 291 290 290 290 291 291 291 291 291 291 292 294 296 299 301 305 309 311 313 313 314 315 316 316 315 315 315 316 316 315
310 311 312 312 312 311 310 310 310 308 308 308 304 304 309 305 300 299 297 298 299 296 295 294 294 295 295 295 295 293 292 291 290 290 291 291 291 290 290 290 289 288 288 287 287 288 287 287 287 287 287 287 287 287 287 287 287 288 288 288 288 288 288 289 290 291 291 291 291 289 289 290 290 291 291 291 291 291 291 291 293 294 296 300 305 309 311 312 312 313 314 314 314 314 315 316 316
310 312 311 310 310 310 309 309 308 307 307 307 305 304 306 306 302 298 299 299 297 296 295 294 294 293 294 294 293 292 291 291 290 291 291 291 291 291 290 289 289 288 288 287 287 287 287 287 287 287 286 286 287 287 287 286 287 287 287 287 287 287 287 288 288 288 289 289 290 289 288 289 289 290 290 291 291 290 291 291 291 291 291 293 297 301 305 308 309 310 311 312 313 313 314 316 316
310 311 309 309 309 308 307 306 306 306 306 306 305 303 303 305 303 299 301 301 299 299 296 294 294 292 293 292 292 291 290 291 291 291 290 290 290 289 289 289 289 288 288 288 287 287 287 287 287 286 286 286 286 286 286 286 286 287 286 287 287 286 286 287 287 287 287 288 288 288 288 288 289 289 289 290 290 290 290 291 291 291 291 291 292 293 296 299 303 306 308 310 311 312 314 315 316
308 308 309 309 308 307 305 303 304 304 303 305 304 302 302 303 301 300 303 302 300 301 298 295 295 292 292 291 291 290 290 290 290 289 289 288 288 288 288 288 288 288 288 287 287 286 286 286 286 286 286 286 286 286 286 286 286 287 286 286 287 286 286 286 286 286 286 286 287 287 287 287 288 289 289 289 289 290 289 290 290 291 291 291 291 291 291 293 295 298 303 307 309 311 313 315 315
308 307 308 307 305 306 304 301 302 301 301 302 303 302 303 302 300 301 302 303 303 301 299 297 295 292 291 291 290 290 289 289 289 288 288 288 287 287 287 287 287 287 287 287 286 286 286 286 286 286 286 286 286 286 286 287 287 287 286 286 287 286 286 286 286 285 286 286 286 286 286 287 287 288 288 288 288 288 288 289 289 289 290 291 291 291 291 291 291 293 297 302 306 309 311 312 314
307 307 306 304 304 305 303 300 300 299 300 301 303 303 302 301 300 301 301 303 303 299 297 296 294 292 290 290 290 289 289 288 288 288 287 287 287 287 287 287 287 287 286 286 286 286 285 285 285 286 286 286 286 286 286 287 287 287 287 287 287 287 286 286 286 285 285 285 285 285 286 286 286 287 288 288 288 288 288 288 288 288 289 290 290 291 291 291 291 292 294 297 301 306 308 310 311
307 307 305 303 303 303 301 300 298 297 301 302 302 302 301 301 301 299 298 298 296 295 295 294 292 291 290 289 289 289 288 288 287 287 287 287 286 286 286 286 286 286 286 286 285 285 285 285 285 285 286 285 285 286 286 286 287 287 287 287 287 287 287 287 286 286 285 285 285 285 285 285 285 287 287 287 288 288 288 288 288 288 288 288 289 291 291 291 292 292 292 295 298 302 305 308 310
307 308 306 303 301 301 300 299 297 298 300 300 300 301 301 302 301 298 294 293 292 293 293 292 290 290 289 289 288 288 287 287 286 286 286 286 286 286 286 286 286 286 285 285 285 285 284 284 284 284 285 285 285 285 286 286 286 287 287 287 287 287 287 287 286 286 286 286 285 285 285 285 286 286 287 287 287 288 288 288 288 288 288 288 288 289 289 290 292 292 292 293 296 299 301 305 307
308 307 305 303 300 300 299 299 298 298 299 299 299 301 300 299 299 296 292 291 291 292 291 290 289 288 288 288 288 287 287 287 286 286 286 286 285 285 285 285 285 285 285 285 284 284 284 284 284 284 284 285 285 285 285 286 286 287 286 286 287 287 286 286 286 286 286 286 286 285 285 285 286 287 287 287 287 288 288 288 288 289 289 289 289 288 288 289 289 291 291 291 293 296 299 302 303
306 305 304 302 299 299 299 299 299 299 298 299 300 300 299 297 296 294 291 290 291 290 289 289 288 287 287 287 287 287 286 286 286 286 286 285 285 285 285 285 284 284 284 284 284 284 284 284 284 284 284 284 284 284 285 285 286 286 286 286 286 286 286 286 286 286 286 286 286 285 285 286 286 287 287 288 288 288 288 288 288 289 289 289 290 289 289 288 288 289 290 290 291 293 296 299 301
303 302 302 301 298 298 299 299 299 299 298 298 298 299 298 296 297 295 291 290 290 289 288 287 287 286 286 286 286 286 286 286 286 286 285 285 285 285 284 284 284 284 284 284 283 283 283 283 283 283 283 283 284 284 285 285 285 285 285 285 286 285 286 286 286 286 286 286 286 286 286 286 286 286 287 287 287 288 288 288 289 289 289 289 290 290 290 289 289 288 288 289 290 291 293 296 298
301 300 302 303 299 298 298 299 299 299 299 297 297 298 298 296 297 294 290 290 290 288 287 287 286 286 286 286 286 286 285 285 285 285 285 285 285 284 284 284 283 284 283 283 283 283 283 283 283 283 283 283 283 283 284 284 284 285 285 285 285 285 285 285 285 286 286 286 286 286 286 285 286 286 286 286 287 287 288 288 289 289 289 289 289 290 290 290 290 290 289 288 288 289 291 293 295
300 299 303 303 300 300 299 298 299 299 299 298 297 298 298 295 294 292 290 290 289 287 287 286 286 285 285 285 285 286 285 285 285 284 284 284 284 284 283 283 283 283 283 283 282 282 282 282 282 282 282 282 282 283 283 283 283 283 283 284 284 283 284 284 284 285 285 285 285 285 285 285 285 285 286 286 286 286 287 288 288 289 289 289 289 289 289 290 290 291 291 290 289 289 289 290 292
301 300 301 301 300 301 299 298 299 298 299 298 298 299 298 294 292 291 290 289 288 287 286 286 285 285 285 285 285 285 285 285 284 284 284 284 284 283 283 283 282 282 282 282 282 282 282 282 282 282 281 281 281 281 282 282 282 282 282 282 282 282 282 282 283 283 284 284 284 284 285 285 285 285 285 285 285 285 286 287 287 288 288 288 289 289 289 290 290 291 291 291 291 291 290 290 291
301 301 301 300 300 300 299 298 298 298 299 298 298 299 298 293 291 291 290 289 288 287 286 285 285 285 285 285 284 284 284 284 284 284 283 283 283 283 283 282 282 282 282 282 282 282 281 282 282 282 281 281 281 281 281 281 281 280 280 280 280 280 281 281 282 282 282 283 283 283 284 284 284 284 284 284 284 285 285 286 286 287 288 288 288 289 289 289 289 290 291 291 291 291 291 292 292
300 301 301 300 299 299 299 298 297 297 297 298 298 298 297 293 291 291 290 290 288 286 286 285 285 285 285 285 284 284 284 284 284 283 283 283 283 282 282 282 282 281 281 281 281 281 281 281 281 281 281 281 281 280 280 280 280 280 280 280 280 280 280 280 281 281 281 281 282 282 283 283 283 284 284 284 284 284 284 285 286 286 287 287 287 288 288 289 289 290 290 290 291 291 291 292 292
300 300 300 299 298 298 298 298 297 297 297 298 298 297 297 294 291 291 291 290 288 286 285 285 285 285 284 285 284 284 284 284 284 283 283 283 282 282 282 282 282 281 281 281 281 281 281 281 281 281 281 280 280 280 280 280 280 279 279 279 279 279 279 280 280 280 281 281 281 282 283 283 283 283 283 283 283 283 284 285 285 285 286 286 287 287 288 288 289 289 289 290 290 291 291 291 292
299 299 299 298 297 297 298 298 297 297 297 297 297 297 297 293 290 290 290 290 287 286 285 285 285 285 285 285 284 284 284 284 284 283 283 282 282 282 282 282 282 281 281 281 281 281 281 281 281 281 281 280 280 280 279 279 279 279 279 279 279 279 279 279 279 279 280 280 281 282 282 282 282 282 282 282 282 282 283 284 284 285 285 285 286 287 287 288 288 288 289 289 290 290 290 291 291
298 298 298 297 297 297 297 297 298 298 297 297 297 297 296 292 290 290 290 289 287 286 285 285 285 285 285 285 285 285 284 284 284 283 283 282 282 282 282 282 282 281 281 281 281 281 281 281 281 281 281 280 280 280 279 279 279 279 279 279 279 279 279 279 279 279 279 279 280 280 280 280 280 280 281 281 281 281 282 283 284 284 284 285 285 286 286 287 287 288 288 288 289 289 289 290 290
297 297 297 297 297 297 296 297 298 297 296 297 297 296 295 292 290 289 289 288 287 286 286 285 285 285 285 285 285 285 284 284 284 283 283 282 282 282 282 282 282 282 281 281 281 281 281 281 281 281 281 280 280 280 279 280 280 279 279 279 279 279 279 279 279 278 278 278 278 278 278 279 279 279 280 281 281 281 282 283 283 283 283 284 284 285 286 286 287 287 287 288 288 288 289 289 290
297 297 297 297 297 297 296 296 297 297 296 296 297 296 293 291 289 289 288 288 287 286 286 285 285 285 285 285 285 284 284 284 283 283 283 283 283 283 282 282 282 282 282 282 281 281 281 281 281 281 281 280 280 280 280 280 280 279 279 279 279 279 279 279 279 278 278 278 278 277 278 278 279 279 279 280 280 281 282 282 283 283 283 283 283 284 285 285 286 286 287 287 288 288 288 288 289
297 297 296 297 297 296 296 296 297 297 296 296 296 296 293 290 289 288 288 287 286 286 285 285 285 285 285 285 285 284 284 284 284 284 284 283 283 283 283 283 282 282 282 282 282 281 281 281 281 281 281 280 280 280 280 280 280 279 279 279 279 279 279 279 278 278 278 277 277 277 278 278 278 278 278 278 280 281 281 282 282 282 282 282 282 283 283 284 285 285 286 286 287 287 288 288 289
297 296 297 297 296 296 296 297 297 296 296 296 296 295 293 289 288 288 287 287 286 286 285 285 285 285 285 285 285 284 284 284 284 284 284 284 283 283 283 283 283 283 282 282 282 281 281 281 281 281 281 280 280 280 280 280 279 279 279 279 279 279 279 278 278 278 278 277 277 277 277 277 277 277 277 278 279 280 280 281 281 281 281 281 282 282 282 283 284 284 285 286 286 287 287 288 289
297 296 296 296 295 295 296 296 296 296 296 295 295 295 293 288 287 287 286 286 285 285 285 285 285 285 285 285 284 284 284 283 284 284 284 284 284 284 283 283 283 282 282 282 281 281 281 281 281 281 281 281 280 280 279 279 279 279 278 278 278 278 278 278 278 278 277 277 277 277 277 276 276 276 277 277 277 277 278 280 280 281 281 281 281 281 282 282 283 283 284 285 285 286 287 287 288
296 295 295 295 294 294 295 295 295 296 296 295 294 295 294 290 288 286 285 285 285 285 285 285 285 286 285 285 285 285 284 284 283 284 284 284 284 283 283 283 282 282 282 281 281 280 280 281 281 281 281 281 280 280 279 279 279 278 278 278 278 278 278 278 278 278 277 277 277 276 276 276 276 276 276 276 276 276 276 277 279 280 280 280 280 281 281 281 282 282 283 284 284 285 286 286 287
297 295 294 294 294 294 294 295 295 295 296 295 294 294 294 293 290 286 286 285 285 285 285 285 286 286 286 286 285 285 284 284 284 284 284 284 283 283 282 282 281 281 281 280 280 280 280 280 280 280 280 280 280 280 279 279 278 278 278 278 278 278 278 278 278 277 277 277 276 276 276 276 275 275 275 275 275 275 275 276 277 279 280 280 280 280 280 281 281 281 282 283 283 284 285 285 286
297 295 294 294 294 294 294 294 294 295 295 294 294 293 293 293 291 287 286 285 285 285 285 286 286 286 286 286 285 285 284 284 284 284 284 283 282 282 282 281 281 280 280 280 280 280 280 280 280 280 280 280 280 280 279 279 278 278 278 278 278 278 277 277 277 277 276 276 276 276 275 275 275 275 275 275 275 275 275 276 276 278 279 279 279 279 279 280 280 281 281 282 283 283 284 285 285
296 295 294 294 294 294 294 294 294 295 294 294 294 293 292 292 291 287 286 286 285 286 286 286 286 286 286 285 285 284 284 283 283 283 283 282 282 281 281 280 280 280 280 279 279 279 279 279 279 279 279 279 279 279 279 278 278 278 278 278 277 277 277 276 276 276 276 276 275 275 275 275 274 274 274 274 275 275 276 277 277 277 278 278 278 278 279 279 280 280 281 281 282 282 283 283 284
295 295 294 294 294 294 294 294 294 294 294 294 293 292 292 292 290 287 287 287 286 286 286 286 286 286 285 285 284 284 283 283 283 282 282 282 281 281 280 280 280 279 279 279 279 279 279 279 279 279 279 278 278 278 278 278 278 277 277 277 276 276 276 276 275 275 275 275 275 274 274 274 274 274 274 274 275 275 276 277 277 277 277 277 278 278 278 279 279 280 280 281 281 281 281 282 283
295 295 295 294 294 294 294 294 294 294 294 293 293 292 291 292 291 289 289 288 287 287 287 286 286 285 284 284 283 283 283 282 282 282 282 281 281 280 280 280 279 279 278 278 278 278 278 278 278 278 278 278 277 277 277 276 276 276 276 276 275 275 275 275 274 274 274 274 274 274 274 274 274 274 274 274 274 274 275 276 277 277 277 277 277 277 278 278 279 279 280 280 280 280 280 280 281
295 295 294 295 294 294 294 293 293 294 294 293 292 292 291 291 291 290 289 288 286 286 286 286 285 284 284 283 283 282 282 281 281 281 281 280 280 280 279 279 278 278 278 277 277 277 277 277 277 276 276 276 276 276 275 275 275 275 275 275 274 274 274 274 274 274 273 273 273 273 273 273 273 273 273 273 273 273 273 275 275 275 275 276 276 277 277 278 278 279 279 279 279 279 279 279 280
295 295 294 295 295 294 294 294 292 293 294 293 292 291 291 291 290 289 288 286 286 286 286 285 284 284 283 283 282 281 281 280 281 281 280 279 279 279 279 278 278 277 277 277 277 276 276 276 275 275 275 275 274 274 274 273 273 273 273 273 273 273 273 273 273 273 273 273 273 273 273 272 272 272 272 272 273 273 273 274 274 274 274 275 275 276 276 277 278 278 278 278 279 279 279 279 279
295 294 293 294 294 294 294 294 294 294 294 293 292 291 290 290 290 288 286 286 286 286 286 285 284 283 282 282 281 281 280 280 280 280 279 279 279 279 278 277 277 277 277 276 276 275 275 275 274 274 274 273 272 272 272 272 272 272 272 272 272 272 272 272 272 272 272 272 272 272 272 272 272 272 272 272 272 272 273 273 273 273 273 274 274 274 275 276 276 277 278 278 278 278 278 278 278
294 293 293 293 292 293 294 294 293 294 293 292 291 290 290 290 289 288 286 286 286 286 286 284 283 283 282 281 280 280 280 280 279 279 279 279 278 278 277 276 276 276 276 275 274 274 274 273 273 273 273 272 271 271 271 271 271 271 271 271 272 272 271 271 271 271 271 271 271 271 271 271 271 271 271 271 271 271 272 272 272 272 272 272 273 273 273 274 275 276 277 277 277 277 277 277 278
293 293 292 293 292 292 293 293 292 293 293 292 291 290 290 289 288 288 287 285 285 286 285 284 283 282 281 280 280 279 279 279 278 278 278 278 277 276 276 275 276 276 274 273 273 272 272 273 273 272 271 270 270 270 270 270 271 271 271 271 271 271 270 270 271 271 271 270 270 270 270 270 270 271 270 270 270 271 271 271 271 271 272 272 272 273 273 274 274 275 276 276 276 277 277 277 277
294 293 293 293 292 292 292 291 291 292 293 292 291 290 290 289 287 287 286 285 285 285 285 283 283 282 281 280 279 279 278 277 277 277 278 278 276 275 275 275 275 274 273 272 272 272 272 272 272 271 270 270 269 269 270 270 270 270 270 270 270 270 270 270 270 270 270 270 270 270 270 270 270 270 270 270 270 270 270 270 271 271 271 271 272 272 273 274 274 275 275 275 276 276 276 276 277
294 293 292 291 290 291 291 291 291 292 292 292 290 290 290 289 288 286 286 286 285 284 283 283 282 281 279 279 278 278 277 276 277 278 278 276 275 274 274 274 273 272 271 271 271 271 271 271 270 270 269 269 269 269 270 270 270 269 269 269 269 269 269 269 269 269 269 269 269 269 269 269 269 269 269 269 269 269 270 270 270 270 270 270 271 271 272 272 273 274 274 275 275 275 276 276 277
294 292 291 290 289 290 290 290 292 292 291 291 290 290 289 288 288 287 286 285 284 283 283 282 281 280 278 278 277 277 276 276 277 277 276 275 274 274 274 273 272 271 271 271 270 270 270 270 269 269 269 269 269 269 269 269 269 269 269 269 269 269 269 269 269 269 269 269 269 269 269 269 269 269 269 269 269 269 269 269 269 269 270 270 270 270 271 271 272 273 274 274 275 275 276 276 277
292 292 290 290 291 292 291 290 291 292 290 290 290 290 289 288 288 287 286 284 283 283 282 281 280 279 278 277 277 276 276 276 276 276 275 274 273 273 273 272 271 271 270 270 269 269 269 269 269 268 268 269 269 268 268 268 268 268 268 268 268 268 268 268 269 268 268 268 268 268 268 268 268 268 269 269 269 269 269 269 269 269 269 269 270 270 270 271 271 272 273 273 274 274 275 276 276
292 291 290 289 290 290 289 288 289 290 289 290 290 289 288 288 288 287 285 284 283 282 281 280 279 278 277 276 276 275 275 275 275 274 274 273 273 273 273 272 271 270 270 269 269 268 268 268 268 268 268 268 267 267 267 267 267 268 268 268 268 268 268 268 268 268 268 268 268 268 268 268 268 268 268 268 268 268 268 268 268 269 269 269 269 269 270 270 271 272 272 272 273 274 274 275 275
292 292 290 289 289 289 289 288 288 288 289 289 289 288 287 288 288 286 284 284 283 282 281 279 278 277 277 276 275 275 275 275 274 274 274 273 272 272 272 271 270 269 269 268 268 268 268 267 267 267 267 267 266 267 267 267 267 267 268 268 268 268 268 268 268 268 268 268 268 268 268 268 268 268 268 268 268 268 268 268 268 269 269 269 269 269 270 270 271 271 272 272 273 273 273 274 274
291 292 290 288 288 289 290 289 288 288 288 288 287 287 287 288 288 285 284 284 282 281 280 278 278 277 276 275 275 275 275 274 274 274 274 272 271 271 271 270 269 269 268 268 267 267 267 267 267 267 266 266 266 266 267 267 267 267 267 267 267 267 267 267 268 268 268 268 268 268 268 268 268 268 269 268 269 268 268 268 268 269 269 269 269 270 270 270 271 271 271 272 272 273 273 273 274
Wind_Speed
1 3 5 6 6 3 1 0 4 2 3 6 6 5 3 4 2 5 6 5 3 0 1 2 2 2 2 3 5 8 7 4 2 2 1 4 5 7 12 13 14 15 16 16 16 16 16 11 8 8 4 5 5 4 3 3 2 2 1 2 2 3 3 3 4 4 3 4 4 3 4 6 10 8 5 5 4 5 5 3 4 5 5 6 5 5 5 4 3 5 9 9 8 8 8 6 4
2 2 5 8 4 2 2 1 5 3 5 7 6 6 2 2 4 8 9 6 3 4 5 5 7 7 6 7 8 6 6 6 5 2 2 7 4 5 13 14 16 17 18 20 19 16 15 14 11 10 7 4 3 3 2 4 4 3 2 2 2 2 3 6 5 2 2 4 4 3 3 4 7 7 5 5 4 5 5 4 5 5 6 6 5 6 7 6 4 6 9 11 9 7 8 6 4
2 2 5 6 2 2 1 1 5 5 6 8 6 3 0 4 7 6 6 5 4 7 6 6 6 6 2 3 3 2 3 4 6 2 1 8 4 7 13 15 17 20 20 23 22 18 17 17 17 18 15 11 6 4 2 2 3 4 4 3 2 1 4 5 5 3 2 2 3 4 3 4 5 5 5 6 6 5 5 5 5 6 5 6 6 6 6 6 4 7 8 10 11 9 9 7 4
2 3 4 3 1 1 2 3 5 5 7 7 6 2 1 6 7 6 5 3 5 7 4 3 3 5 3 2 2 3 5 3 7 5 1 8 7 8 12 14 17 20 21 24 23 21 21 19 21 24 23 22 20 16 10 5 2 2 4 5 3 1 1 2 2 3 2 2 3 4 3 2 4 5 5 6 7 6 6 6 5 5 5 6 7 6 4 3 4 8 10 10 11 11 10 8 6
2 3 3 3 2 1 2 4 4 6 7 6 6 2 2 5 6 5 3 2 5 5 2 2 2 3 3 5 3 1 4 1 6 8 3 6 8 7 9 11 13 18 21 24 24 23 25 23 21 23 24 25 25 26 23 19 14 10 8 5 4 4 5 3 2 4 3 1 2 3 3 1 3 4 5 5 6 6 7 7 5 4 4 5 6 6 4 3 3 5 10 10 11 12 10 9 8
3 3 2 1 1 1 3 5 5 7 6 5 7 6 6 6 4 3 3 3 3 2 0 1 1 5 5 6 5 5 5 2 3 7 5 5 8 8 9 9 11 17 20 22 24 25 27 27 26 25 25 25 25 26 26 26 24 24 24 18 13 11 10 9 9 9 7 6 5 4 4 2 2 3 5 6 4 5 7 7 5 5 5 5 6 7 6 4 2 4 7 9 11 12 10 9 9
2 2 2 1 1 0 5 6 6 7 3 2 7 9 9 6 3 2 3 3 3 3 1 1 4 6 4 3 4 8 7 5 4 5 6 6 8 9 10 9 12 16 18 21 23 25 26 28 29 29 27 26 26 25 26 26 25 27 27 26 24 20 16 14 15 15 13 12 11 8 6 6 5 2 2 5 5 4 5 7 6 6 5 5 5 6 6 3 2 4 5 6 8 10 11 10 10
1 1 1 2 3 2 5 6 6 5 2 2 6 8 8 5 1 4 5 3 2 3 3 4 3 1 3 2 3 6 8 9 8 7 7 7 9 11 12 12 14 16 17 20 22 23 24 26 28 29 28 28 27 26 27 25 24 26 26 26 26 26 23 20 17 16 17 15 14 13 10 9 8 6 4 1 5 5 5 6 7 6 5 6 5 4 6 4 2 4 4 4 5 8 12 12 11
2 2 1 3 3 2 4 5 5 3 4 4 6 7 5 2 2 4 5 3 1 3 4 4 2 2 6 6 4 5 7 9 9 9 9 10 12 13 16 16 16 17 18 20 22 23 24 24 25 26 28 28 27 27 27 24 24 24 24 24 24 26 27 24 20 16 16 14 13 14 13 13 13 11 10 7 0 4 6 5 5 6 5 6 6 4 4 4 2 3 4 3 4 7 13 15 12
1 2 1 2 2 4 5 4 3 2 4 5 6 9 5 1 2 4 5 3 3 4 4 2 1 4 8 8 5 5 6 7 9 11 11 12 13 14 18 19 19 19 20 21 22 25 26 25 24 24 25 27 26 26 26 25 25 24 23 23 22 23 24 24 24 20 17 13 12 13 13 12 13 14 14 13 9 4 1 2 3 5 5 4 5 3 3 4 3 4 4 4 5 5 8 12 13
1 1 0 2 3 4 5 4 5 4 5 6 6 5 3 1 3 3 3 2 3 3 4 0 3 8 8 6 4 5 7 7 9 11 11 13 15 16 18 20 21 21 22 22 24 27 28 27 27 26 26 27 28 28 28 27 26 26 24 23 23 23 21 21 22 23 20 15 13 13 12 11 12 13 14 15 14 12 7 0 2 3 5 4 5 4 2 3 5 6 6 6 5 3 4 7 14
1 1 1 3 2 3 4 5 7 7 7 8 4 2 2 1 3 3 3 3 3 4 4 2 3 8 6 5 4 7 9 8 10 10 11 13 16 17 18 20 22 24 23 23 25 28 28 29 29 29 29 29 30 30 30 29 29 27 26 25 24 24 24 22 20 21 23 19 17 15 13 13 15 14 14 14 13 14 13 7 2 3 2 3 4 5 4 2 2 4 5 7 7 4 5 4 11
1 1 2 2 2 3 4 6 6 7 6 6 4 4 2 1 1 3 2 3 3 4 3 5 3 4 3 5 5 8 9 9 10 10 11 13 15 17 19 21 23 24 25 25 26 27 28 29 30 30 30 29 30 31 31 31 30 29 28 27 25 24 24 25 23 22 23 22 21 20 17 17 18 18 17 16 14 13 15 14 9 7 6 4 4 4 4 3 1 1 4 6 7 5 5 7 7
1 1 3 2 0 3 4 6 6 7 7 5 3 2 1 1 2 4 2 2 2 2 3 4 1 1 4 6 5 7 9 11 11 11 12 13 15 17 19 21 23 24 25 26 27 26 26 27 29 30 30 30 30 30 31 31 30 30 29 28 26 25 24 24 24 24 23 23 23 22 21 20 21 21 20 19 17 14 13 15 15 12 10 6 4 3 3 4 3 3 4 3 5 4 3 7 4
1 1 2 3 2 3 2 4 6 6 6 5 3 1 2 3 2 1 2 2 3 5 2 3 5 3 2 4 5 8 13 14 12 12 13 14 16 17 19 20 22 24 24 25 26 26 26 26 27 29 29 30 31 30 30 31 30 30 29 29 28 26 25 24 23 23 23 23 24 23 22 21 22 22 22 22 20 19 16 16 16 15 13 9 6 2 3 5 5 5 5 3 4 2 2 5 1
0 1 2 3 3 3 1 1 3 5 5 4 3 0 1 3 2 1 3 2 4 5 3 4 7 4 3 2 9 16 17 15 12 12 12 13 14 15 16 18 20 22 23 24 24 24 25 25 26 27 27 28 29 30 30 29 30 29 29 29 30 28 26 25 23 22 22 22 23 24 24 22 22 22 22 23 22 21 20 19 17 16 15 11 9 5 3 4 5 7 6 4 4 4 2 2 1
1 2 3 3 3 3 2 2 2 4 7 4 3 1 3 1 3 1 2 2 4 6 6 6 7 6 7 10 17 20 16 13 11 9 9 10 11 13 14 16 17 19 21 23 23 22 23 24 24 25 26 26 27 29 29 29 29 29 29 29 29 29 27 26 24 23 23 23 23 25 25 24 23 23 22 22 22 22 21 21 20 18 18 15 12 9 7 6 5 6 7 7 6 5 3 2 2
2 2 3 4 3 3 3 4 4 5 7 6 3 0 5 3 3 4 3 4 7 8 8 8 10 11 12 15 18 17 15 12 10 9 10 10 11 12 14 15 17 18 18 20 21 21 21 22 23 24 25 25 25 26 26 27 27 27 29 29 29 29 28 27 26 25 25 24 24 24 25 25 24 24 22 22 22 22 21 21 21 20 20 19 16 13 11 9 8 8 7 7 7 6 4 1 5
2 0 4 4 2 3 4 5 6 5 8 8 4 2 3 4 3 4 4 3 6 5 7 8 11 12 12 15 15 15 14 12 12 12 14 14 14 15 15 15 16 17 17 18 20 21 20 20 21 23 24 23 22 22 23 25 26 25 26 26 26 28 28 28 27 25 25 24 23 23 23 25 24 23 23 22 21 22 22 21 21 21 20 20 19 17 16 13 11 11 10 9 7 5 2 1 4
1 1 5 2 4 4 4 7 8 7 8 9 6 2 2 3 2 3 3 2 5 3 5 6 9 12 12 14 15 15 15 14 15 16 18 17 17 16 16 15 15 16 16 17 18 20 20 20 20 21 22 23 22 20 21 24 23 21 23 24 21 24 27 26 26 25 24 23 22 22 23 24 23 22 22 23 22 23 23 23 22 21 21 21 20 20 19 18 15 14 13 11 9 6 2 1 3
0 1 4 5 4 4 6 8 8 6 5 6 6 3 2 2 1 2 3 3 3 2 3 3 9 14 13 14 15 15 16 17 17 18 19 19 18 17 16 16 15 15 15 16 18 20 21 20 19 20 21 22 22 20 19 20 20 19 21 22 18 20 24 23 24 25 24 24 23 23 23 22 22 21 22 23 23 23 23 24 23 23 22 22 22 22 21 21 20 18 17 15 12 9 5 2 3
0 1 4 5 4 4 8 8 6 5 3 3 4 4 4 1 0 2 4 5 3 4 4 3 11 15 14 15 15 16 18 18 18 19 19 19 19 17 17 16 15 15 15 16 17 19 20 21 19 19 20 21 21 20 18 18 18 17 18 19 17 19 21 20 22 24 24 24 24 23 23 22 22 21 21 22 22 22 22 23 23 22 21 21 21 21 21 21 20 20 18 16 14 11 7 4 2
2 2 5 4 3 5 7 8 6 4 3 4 5 3 2 2 1 4 5 6 8 6 3 10 15 16 17 17 17 17 18 19 19 19 19 19 18 18 17 16 15 15 16 17 17 18 20 20 20 20 20 20 20 19 18 17 17 16 16 17 16 18 18 18 20 22 22 23 23 23 23 23 23 21 20 21 20 20 20 20 21 21 21 20 19 18 20 19 17 18 18 16 14 12 10 7 4
2 3 5 4 3 5 6 6 5 3 4 5 4 3 4 5 3 5 8 9 7 7 13 17 19 19 19 19 18 19 19 19 19 19 18 18 18 17 17 17 16 15 16 17 17 18 20 20 20 20 20 21 20 19 18 17 16 16 16 16 16 17 17 17 18 18 18 18 20 22 22 22 22 21 20 20 20 19 18 18 18 18 19 19 18 18 18 17 16 16 16 16 14 12 11 8 6
4 4 5 4 3 5 5 3 5 4 4 3 4 5 6 4 3 7 9 8 9 13 17 18 20 20 19 18 18 19 19 19 19 18 18 17 17 17 17 17 17 17 18 18 18 19 20 20 20 21 21 21 20 19 18 17 16 15 16 16 15 16 16 16 17 16 16 16 16 19 20 19 18 17 18 18 18 18 17 17 16 15 16 16 17 18 17 17 17 16 15 15 15 13 11 10 9
4 4 4 4 3 4 5 6 9 5 3 5 6 9 6 3 4 8 8 7 11 13 16 16 17 17 16 16 17 18 18 18 17 16 16 16 17 18 18 18 18 18 18 18 19 19 20 20 20 21 21 21 20 18 17 16 16 16 16 16 15 16 16 16 16 15 15 15 15 17 18 16 16 14 15 15 15 15 16 15 14 13 13 13 14 16 16 18 18 17 16 15 15 14 12 11 11
2 3 1 3 3 2 5 8 9 5 2 6 9 11 5 3 1 5 7 7 10 13 15 14 14 15 14 15 16 18 18 18 17 16 16 16 16 18 18 18 19 18 17 19 19 19 20 19 19 20 20 20 20 18 16 16 16 15 16 15 15 16 17 15 15 15 15 15 15 16 16 15 15 14 14 14 14 14 13 13 12 12 11 9 9 11 12 15 17 17 18 16 15 15 13 12 12
1 3 2 1 2 2 6 11 10 7 2 5 10 8 3 5 4 4 6 6 9 13 14 14 14 14 14 15 15 16 17 17 16 17 18 17 16 17 18 19 19 17 16 18 19 19 20 19 18 19 19 19 19 17 16 15 15 15 15 15 15 17 17 16 16 15 15 15 15 15 16 16 16 14 14 14 14 14 13 12 12 11 10 9 8 8 10 12 13 14 16 17 18 17 15 14 13
0 4 1 3 6 2 11 14 11 11 5 6 11 7 3 8 6 5 7 7 10 13 14 13 13 12 12 13 13 15 17 16 17 18 18 17 16 17 17 18 18 17 15 16 17 19 19 18 17 18 18 18 18 16 15 14 14 15 15 15 16 18 17 16 16 16 15 15 15 16 16 16 16 15 15 15 15 14 13 13 12 11 10 9 9 8 9 9 9 10 12 14 15 16 17 17 15
2 5 2 6 7 3 12 11 9 11 4 7 12 7 3 8 7 6 7 8 11 12 12 12 11 11 11 11 11 13 16 17 18 18 17 17 16 16 17 17 17 17 15 14 16 18 17 16 15 15 17 17 16 15 14 14 14 14 15 15 16 18 18 17 17 16 16 16 16 16 16 16 16 15 16 16 16 15 15 14 13 12 11 11 11 9 8 8 8 9 10 11 11 11 13 15 15
5 5 1 5 5 5 11 6 7 9 2 6 11 8 3 8 7 5 7 7 10 11 12 11 10 10 10 10 10 11 14 16 16 16 16 16 15 15 15 16 16 16 15 14 15 16 16 15 14 13 14 14 13 12 12 12 12 12 13 14 17 18 18 17 17 17 17 18 17 17 17 16 16 16 16 16 16 16 15 15 14 13 12 13 12 10 9 9 9 9 9 10 11 11 11 11 13
4 5 4 7 7 8 9 4 5 7 5 7 7 9 5 7 7 2 7 7 9 11 11 11 11 11 10 9 9 9 11 14 14 14 14 14 14 13 13 14 15 15 16 15 14 16 16 15 15 14 12 12 11 10 10 10 10 11 11 13 16 18 17 16 16 17 17 18 18 18 17 17 17 16 15 15 16 16 16 15 14 13 13 13 13 11 11 10 10 9 9 10 11 12 12 12 12
4 7 8 9 10 10 9 5 3 2 7 10 7 9 6 4 7 2 7 8 9 11 11 11 10 10 9 7 7 7 8 10 11 11 11 11 11 11 11 13 14 14 15 15 14 15 16 15 14 13 12 12 11 10 10 10 9 10 11 13 14 15 15 14 15 16 17 17 17 17 17 17 17 16 16 16 17 17 17 16 15 14 14 13 13 12 11 11 10 10 11 11 12 12 13 14 13
7 9 7 7 10 10 11 10 4 2 7 10 10 8 4 6 8 3 6 10 10 10 11 10 9 8 7 7 7 7 7 7 8 8 8 8 9 10 11 11 14 14 14 14 13 14 15 15 14 13 13 11 10 9 9 10 10 11 12 12 13 13 12 13 15 16 16 17 17 16 17 18 18 18 18 18 18 18 18 17 16 15 13 13 13 12 12 12 11 11 12 12 12 13 13 14 14
10 11 7 7 10 8 10 13 9 8 8 10 11 9 5 7 7 5 6 10 10 11 10 9 9 8 7 6 6 6 7 6 7 7 7 8 9 10 12 12 14 14 14 14 13 14 15 15 15 14 13 12 11 11 10 11 11 12 12 11 12 12 11 12 13 14 15 16 16 17 19 20 20 21 21 20 20 20 19 18 17 14 13 13 13 12 12 12 12 12 12 13 13 13 14 14 15
10 10 6 8 10 7 10 14 9 8 9 11 9 7 5 6 6 6 7 9 9 10 9 8 7 7 5 6 6 6 6 6 5 6 6 8 10 12 13 14 15 15 15 15 15 16 16 17 16 16 16 14 13 13 12 12 12 13 13 12 12 13 12 12 12 13 13 15 17 19 20 20 20 21 21 20 20 21 20 18 17 15 14 13 13 12 12 12 11 11 12 13 14 14 15 15 15
8 8 6 9 9 9 12 14 9 6 8 11 7 4 3 6 6 6 7 8 9 9 8 7 6 5 5 6 6 6 7 5 5 7 8 10 12 14 15 15 16 17 17 17 18 18 18 18 19 19 19 17 15 15 14 13 13 13 13 13 14 14 13 13 13 12 13 15 16 18 18 18 19 20 20 21 21 21 20 19 18 18 16 14 14 13 12 11 11 12 12 13 14 15 15 15 14
6 6 8 8 8 12 11 9 9 7 7 8 6 4 3 7 6 7 7 7 8 6 7 7 6 5 5 7 7 7 7 6 7 10 12 13 15 16 16 16 16 18 19 19 19 20 20 20 20 20 20 18 17 16 15 15 15 13 12 13 14 15 14 14 14 14 14 15 16 16 16 17 19 21 22 22 21 21 20 20 20 21 18 15 14 14 13 12 12 12 13 14 14 15 16 15 14
6 6 7 8 10 14 8 6 11 9 5 7 7 6 2 8 7 7 7 6 7 6 7 7 5 5 6 7 7 7 7 8 9 13 15 15 17 18 17 17 19 20 21 19 19 22 23 22 21 21 20 20 20 18 17 17 16 14 13 14 15 16 16 15 15 16 15 15 15 15 16 18 20 21 21 21 21 21 21 21 22 22 20 16 15 15 14 13 13 12 13 15 15 16 16 16 14
6 7 9 8 11 14 9 11 17 12 6 7 7 6 2 8 7 8 8 8 9 8 8 6 5 5 6 6 6 7 8 9 10 13 15 17 19 19 19 22 23 23 22 21 24 27 27 25 24 23 22 22 20 19 17 17 16 15 15 16 16 17 17 16 16 16 15 15 15 16 18 19 19 20 20 21 22 22 22 22 22 22 21 18 16 15 15 14 14 13 13 15 16 17 17 16 15
5 7 9 11 14 16 12 13 17 13 3 2 8 7 1 6 8 8 8 8 9 7 6 5 6 6 6 7 7 7 8 10 10 13 17 21 22 22 24 26 24 22 24 27 31 32 30 28 27 25 24 23 21 19 17 16 15 15 16 17 18 17 17 17 16 17 17 16 17 18 18 18 20 21 22 23 23 24 25 25 25 24 23 22 19 17 16 15 14 14 14 15 16 17 17 17 16
3 7 10 13 16 17 16 14 13 9 3 3 8 9 5 2 8 9 7 7 7 5 4 6 7 7 8 8 8 9 10 11 12 16 21 24 25 26 25 23 22 24 27 30 32 30 29 28 27 26 27 26 23 19 16 15 15 16 19 21 20 19 20 20 20 22 23 21 19 20 19 20 22 24 24 23 24 25 27 27 27 26 24 23 22 20 17 16 15 15 15 16 17 17 17 18 18
5 8 12 14 16 14 13 13 9 6 7 5 5 7 10 7 4 9 8 8 6 4 5 8 8 8 10 10 9 11 12 13 15 19 24 26 26 24 22 22 25 26 27 27 26 26 25 25 25 25 26 26 24 19 14 14 18 20 21 21 20 19 20 21 22 23 25 26 26 25 23 23 23 23 23 23 24 25 25 26 26 26 26 25 24 22 19 17 16 16 16 17 18 18 18 19 19
6 11 14 15 17 15 11 9 6 6 8 3 5 7 11 10 4 9 8 7 5 2 6 9 9 10 12 11 12 13 14 15 16 17 23 26 22 20 22 25 24 23 24 25 24 24 24 24 24 24 23 23 21 18 16 19 22 22 21 20 20 20 21 22 23 24 25 27 29 28 26 26 26 24 23 22 22 22 22 24 24 24 25 25 23 22 20 18 18 17 17 17 18 18 18 19 19
6 11 13 13 15 14 8 5 5 6 6 4 9 10 10 9 4 8 7 5 2 3 7 9 10 12 12 12 14 15 17 19 19 19 22 22 20 21 25 25 23 23 24 24 24 24 25 25 25 24 23 21 19 18 19 21 20 18 18 19 21 22 23 24 25 26 26 27 29 29 30 30 28 24 23 21 19 19 20 22 23 23 23 22 22 22 20 19 18 18 17 17 16 15 15 16 17
8 11 12 12 10 8 4 3 6 6 4 8 14 14 11 9 3 5 3 2 3 6 6 8 11 12 12 12 15 17 18 18 20 23 21 19 21 25 25 23 24 26 25 25 26 25 24 24 23 22 21 20 19 18 18 18 17 17 18 20 22 24 25 27 28 28 28 29 30 31 30 28 25 23 23 22 21 21 19 18 18 19 20 20 20 21 20 19 18 18 18 18 17 15 13 14 14
9 10 11 9 5 4 2 1 4 5 5 9 16 17 13 9 3 3 1 2 3 6 7 9 12 13 13 14 16 18 17 16 18 21 19 21 25 25 23 23 25 26 25 26 25 22 21 20 20 21 20 20 20 19 19 20 20 20 21 22 24 26 27 28 30 30 30 30 30 29 25 22 21 21 22 23 24 23 20 18 16 16 17 17 17 18 19 19 18 18 18 18 17 16 14 13 14
7 8 12 9 3 4 4 1 1 3 6 11 17 17 11 9 6 4 5 4 2 4 8 10 12 14 15 16 18 18 17 17 16 15 18 25 26 24 23 24 26 28 26 25 22 20 20 19 20 22 21 20 20 21 22 23 22 22 23 24 26 27 27 27 29 30 29 27 25 24 22 21 22 22 22 23 22 20 19 18 17 15 15 15 15 15 16 17 17 18 18 17 17 17 16 14 14
9 11 12 11 7 7 6 7 6 5 8 12 15 13 8 9 6 5 6 2 1 2 5 8 12 14 16 18 19 17 17 17 14 13 19 24 23 22 23 25 28 29 25 23 21 21 21 21 23 24 21 20 22 24 26 25 24 24 24 24 24 24 24 24 26 26 24 23 23 22 22 22 22 21 20 19 18 17 16 17 17 17 17 16 16 15 15 15 15 16 18 18 17 18 17 15 16
11 11 10 8 7 7 8 10 10 8 10 12 11 7 7 11 5 7 7 2 0 3 3 8 12 14 17 19 18 18 17 15 13 15 21 20 20 22 24 27 31 28 23 22 22 23 25 26 26 23 20 23 26 27 26 24 24 23 22 21 21 21 22 22 23 23 23 22 22 22 21 21 20 19 18 18 18 18 19 20 21 22 22 21 21 21 20 19 17 17 19 19 19 19 18 17 17
6 7 6 6 4 3 6 8 8 10 13 12 8 5 8 12 4 6 6 3 2 4 4 9 13 14 17 18 18 18 15 14 15 17 18 17 19 23 26 30 30 23 20 23 25 27 28 26 22 20 23 27 28 26 24 23 22 20 18 19 20 21 23 23 22 22 21 20 20 20 20 19 19 19 19 20 21 22 23 23 23 22 22 21 21 21 22 21 20 20 20 20 19 17 17 18 18
3 4 4 7 6 4 6 6 6 9 12 9 6 5 9 8 3 7 4 3 4 6 9 13 15 17 19 18 18 16 14 16 17 14 14 17 22 26 30 30 23 19 22 27 28 28 26 22 20 22 28 29 26 23 23 21 19 18 19 21 23 24 25 23 21 20 20 21 21 21 21 21 21 21 22 23 23 23 23 22 21 21 20 20 19 19 18 18 19 20 21 22 20 18 18 20 20
5 5 5 7 7 4 5 6 7 7 10 8 7 9 10 7 3 5 2 6 8 12 13 15 18 20 21 18 16 15 16 17 15 13 15 20 25 28 28 22 18 21 26 27 26 26 24 21 22 26 28 27 24 22 21 19 19 20 23 24 25 24 23 21 20 21 21 22 22 22 22 22 22 23 23 23 23 22 21 21 21 21 21 21 21 20 18 18 19 20 22 23 22 20 20 21 21
5 5 8 7 5 3 3 6 7 10 10 7 10 13 12 11 7 2 6 11 14 14 15 19 21 21 20 18 17 17 17 16 14 16 19 22 27 27 21 18 20 25 27 24 24 27 26 23 24 27 27 25 23 21 20 21 22 24 25 25 24 23 21 20 20 21 22 22 22 21 21 22 22 23 23 23 22 22 22 22 22 22 23 24 23 22 20 20 20 21 23 23 22 21 21 21 21
4 4 6 5 2 4 5 4 7 12 12 9 12 14 10 9 9 9 12 14 15 17 19 22 24 21 20 18 18 19 17 14 14 16 18 22 27 24 19 21 25 26 25 23 25 29 27 23 25 27 25 22 22 22 24 25 24 24 23 22 22 22 21 21 21 21 21 22 22 22 22 22 23 23 23 23 23 23 23 23 23 24 24 24 25 24 23 22 22 23 24 23 22 22 22 23 22
4 3 2 3 2 4 2 1 4 8 10 11 14 14 8 7 9 10 12 14 16 19 21 22 22 21 19 17 17 17 13 13 15 16 19 25 27 24 21 24 26 24 24 26 28 29 25 23 25 25 22 22 25 27 27 25 22 22 21 21 22 22 22 22 21 21 22 22 23 23 22 22 23 23 22 23 23 23 23 23 24 24 24 24 24 23 23 22 23 24 24 24 24 23 24 25 24
1 2 3 3 1 2 2 0 0 2 7 10 13 12 8 8 8 7 11 14 15 19 21 20 20 20 19 17 16 14 13 15 16 17 22 26 26 25 23 24 24 24 27 29 28 26 24 24 24 23 23 26 27 27 24 22 22 22 22 23 23 22 22 21 22 22 23 23 23 22 22 23 23 23 23 23 23 23 23 23 23 23 23 23 22 22 22 21 22 24 24 24 24 25 25 25 24
4 4 3 3 4 3 5 5 1 0 5 6 7 11 10 7 6 5 10 13 15 19 21 19 19 20 19 17 15 13 14 16 16 19 24 25 25 25 24 24 25 27 30 29 25 23 24 24 23 23 25 26 26 24 23 23 23 23 23 24 24 23 22 22 22 23 23 23 23 23 23 23 23 23 23 23 23 23 23 22 22 23 22 21 21 21 20 20 21 22 23 23 24 24 24 25 24
Wind_Direction
80 102 120 137 134 166 189 323 264 237 249 269 264 273 239 196 284 273 267 271 262 337 83 22 63 60 61 94 103 102 50 21 353 295 183 2 339 357 2 15 30 33 35 42 41 31 18 4 11 20 59 111 120 124 139 120 89 92 133 149 173 195 206 223 219 247 255 264 266 236 220 196 189 179 177 190 212 219 212 208 186 201 204 197 210 227 253 269 237 214 200 193 185 165 159 160 157
112 109 124 138 128 243 232 331 269 253 254 268 261 260 288 172 246 277 297 318 344 80 101 84 87 71 67 91 102 110 52 47 29 8 61 351 317 4 17 34 40 41 43 49 42 35 35 28 34 36 46 86 124 101 119 127 125 131 142 180 211 218 259 257 234 268 299 261 267 276 242 197 195 190 190 191 202 222 221 215 193 185 194 201 209 230 257 279 249 207 193 189 192 175 165 170 182
129 141 137 149 121 321 222 242 262 265 266 270 275 256 333 262 271 308 354 9 75 113 120 107 94 50 29 129 72 41 62 69 36 34 49 12 9 351 20 49 46 46 51 55 45 39 45 44 52 52 57 60 59 69 92 135 132 142 157 176 187 247 285 279 256 301 330 268 281 295 271 220 209 198 208 207 190 209 229 220 203 185 191 205 214 242 264 281 238 198 191 188 193 182 168 173 198
132 158 169 197 190 241 227 246 261 268 268 270 291 289 227 275 306 356 37 34 122 141 133 135 113 24 344 114 43 50 80 77 39 27 34 27 11 340 17 46 45 50 61 64 48 39 46 51 56 56 62 60 61 66 62 71 93 170 188 184 152 113 307 285 257 309 312 284 307 318 321 238 222 211 219 223 199 199 214 215 223 203 204 214 222 248 260 277 253 214 207 201 194 181 172 168 178
116 140 171 239 239 259 255 260 265 258 270 287 296 301 278 290 329 357 47 52 165 169 147 166 132 61 48 54 7 13 48 49 56 31 30 27 7 349 8 28 37 52 67 71 53 42 45 50 54 54 56 54 58 61 60 64 60 63 73 112 121 69 51 60 84 35 19 41 360 346 353 288 248 229 222 226 218 219 213 205 219 217 225 235 239 251 250 261 275 231 214 215 208 191 185 172 168
115 120 113 275 278 345 263 259 268 260 281 304 291 299 307 308 338 352 84 81 152 158 46 211 112 118 103 61 43 39 12 323 62 29 23 15 7 6 11 27 38 51 66 74 62 49 47 50 53 54 53 50 52 55 58 58 56 60 61 66 67 63 63 63 67 56 53 66 58 48 41 26 336 268 235 218 219 240 227 212 214 222 240 250 255 253 249 249 260 247 218 221 219 204 199 185 176
141 150 117 184 154 269 259 263 275 272 310 347 297 306 312 326 3 283 172 134 146 125 43 108 119 121 104 107 88 55 26 28 64 43 36 21 17 21 28 42 45 50 60 73 71 57 52 52 52 53 53 51 50 51 52 52 55 56 57 59 54 56 66 67 67 64 65 69 67 66 68 56 36 360 259 226 219 228 221 223 228 233 249 259 268 262 251 238 233 265 244 233 225 211 206 197 188
70 270 131 251 217 222 263 266 276 277 327 345 299 296 308 334 345 264 223 204 185 142 122 124 147 174 100 142 115 69 51 59 74 63 51 41 38 38 43 49 50 51 52 63 71 67 62 57 54 54 54 53 51 49 48 49 53 50 54 59 52 50 53 60 66 68 67 68 69 67 70 65 53 53 48 248 225 218 207 217 223 228 252 266 283 286 255 237 228 269 276 262 247 223 207 198 194
50 350 169 254 248 239 263 261 274 272 281 296 291 277 285 324 250 257 236 214 160 142 130 135 237 235 128 113 103 97 76 71 79 69 59 55 51 51 54 54 55 54 52 57 65 71 69 63 61 59 56 54 54 52 49 49 48 47 52 54 54 51 47 53 58 63 65 68 73 66 65 65 64 60 54 56 82 222 213 214 220 223 236 262 286 312 274 253 235 262 287 295 273 238 210 202 196
72 3 197 243 257 259 268 265 283 275 284 294 283 277 268 214 229 246 248 219 155 149 110 97 194 148 130 113 107 106 94 91 86 72 63 61 60 60 59 58 60 58 57 56 59 68 70 68 68 66 62 59 58 56 52 51 49 47 47 47 51 49 50 56 51 52 58 66 70 66 66 63 68 62 55 58 53 51 195 215 245 232 214 254 280 307 308 260 258 282 291 293 279 259 230 215 201
163 70 251 248 256 274 291 297 299 297 306 297 270 278 291 256 230 227 238 186 141 147 117 147 160 132 122 108 101 101 107 104 88 79 71 67 66 64 64 62 62 62 59 58 59 65 68 69 69 68 68 66 63 61 56 54 52 49 47 48 47 43 48 54 51 51 51 59 63 63 70 63 65 63 56 56 53 51 49 137 268 252 210 233 256 272 303 240 272 298 300 302 289 296 311 238 206
251 120 242 263 282 296 309 304 304 308 304 298 300 50 35 273 232 240 218 167 149 146 99 5 149 135 127 113 111 124 119 102 92 89 82 74 69 68 68 65 63 64 61 59 59 60 63 65 66 65 65 67 66 65 61 58 57 54 52 51 51 48 47 48 51 55 50 54 59 61 71 68 64 65 63 57 57 59 52 50 5 353 313 269 261 268 272 241 279 304 305 304 300 312 337 303 212
315 110 274 295 339 295 306 301 301 310 305 320 360 54 20 265 282 317 246 153 144 158 76 22 134 139 123 114 120 140 126 106 105 96 88 80 75 73 71 68 64 62 61 59 57 55 55 57 60 60 60 62 62 63 61 59 58 57 56 54 54 54 52 51 53 55 52 52 55 58 64 67 65 64 64 62 63 67 60 51 39 29 13 336 310 301 285 269 222 336 327 298 299 310 331 346 222
329 135 300 303 360 285 293 295 308 313 313 352 35 85 30 25 9 345 276 197 115 79 40 23 343 180 129 135 144 153 133 118 114 101 93 86 81 78 73 69 64 61 58 57 55 51 50 50 52 54 54 54 55 56 55 54 55 55 56 55 54 52 51 52 53 53 52 50 49 53 59 62 63 61 60 60 59 61 63 52 42 37 31 22 354 312 282 286 259 316 352 320 309 301 316 358 211
321 162 295 285 268 286 267 292 315 306 310 359 35 101 92 72 12 360 341 298 87 46 14 47 359 317 166 174 168 145 135 126 117 106 98 90 83 78 74 69 63 59 55 53 52 50 47 45 46 46 46 46 47 48 48 47 48 50 51 51 51 49 47 46 47 48 47 47 44 44 50 56 57 57 56 55 54 52 54 51 43 37 34 36 25 340 277 305 292 314 348 360 347 329 281 359 198
337 177 261 279 278 285 274 296 290 286 317 18 65 360 166 100 39 9 15 333 111 58 4 38 10 351 15 59 126 129 132 128 120 112 102 93 84 77 72 66 61 57 52 50 49 47 46 44 43 42 40 40 41 42 42 41 40 42 44 46 46 46 45 43 43 41 38 38 37 36 40 47 49 49 50 48 47 47 46 45 43 39 37 38 36 38 28 352 322 319 324 316 345 353 300 319 324
245 243 263 272 274 282 294 276 277 310 322 360 97 225 270 139 82 72 78 78 109 75 52 50 38 44 58 84 114 124 127 124 121 118 107 95 85 75 67 61 58 55 50 48 46 45 44 43 41 39 38 36 37 37 37 36 35 35 36 38 40 41 41 40 39 38 35 32 30 30 32 37 39 39 41 41 39 39 39 40 39 37 37 38 39 39 40 39 20 347 321 310 314 332 332 268 204
256 243 278 279 284 305 322 306 322 326 314 337 45 360 291 285 108 145 152 91 99 88 71 73 70 71 83 99 111 116 118 118 116 110 98 86 78 72 66 59 55 53 50 47 44 41 41 40 38 35 34 33 33 34 33 32 33 31 31 31 32 33 35 36 37 36 34 31 27 25 27 30 31 30 32 33 33 31 30 32 33 32 32 32 35 37 35 39 32 21 3 343 320 308 340 256 198
278 236 276 279 327 344 12 347 336 328 316 327 352 21 304 311 72 159 216 141 133 106 84 94 91 92 100 103 105 107 109 107 103 93 84 76 71 69 66 62 57 54 49 46 42 38 37 35 34 32 29 28 29 31 30 30 32 29 28 28 27 26 28 31 33 34 32 31 29 25 24 26 27 24 23 24 24 22 21 21 23 24 25 25 28 29 29 31 31 24 22 21 2 327 333 240 224
339 295 280 328 8 349 33 4 342 338 323 324 341 1 301 330 50 183 246 203 182 170 124 131 123 121 116 107 104 104 103 96 92 85 78 73 69 67 64 62 57 53 48 46 42 36 34 31 29 28 26 25 26 25 25 26 28 27 26 26 25 22 23 26 27 29 28 27 27 24 23 23 23 19 17 18 16 14 13 12 13 14 14 15 18 19 18 19 21 20 18 24 28 16 357 248 242
91 292 321 25 1 342 31 8 350 349 327 320 331 319 311 20 56 230 280 270 210 135 101 138 142 134 121 111 106 102 99 91 85 79 76 72 68 66 64 61 58 55 50 47 42 35 31 28 26 24 23 24 23 21 20 20 20 22 21 22 23 19 19 21 21 22 21 20 21 20 20 20 19 15 11 13 12 9 6 6 7 8 8 6 7 10 9 9 10 11 12 12 14 16 8 328 235
270 56 20 29 352 355 18 7 357 341 309 303 321 326 333 27 127 338 307 290 341 25 9 89 127 125 116 111 106 100 93 86 81 76 73 68 65 63 61 59 57 54 49 43 38 33 28 26 25 23 21 21 21 19 17 17 17 17 16 16 19 14 15 17 16 15 14 15 15 14 15 14 14 11 7 7 7 5 2 1 2 4 5 3 3 2 1 2 2 1 4 4 1 1 360 352 287
299 63 52 36 9 10 8 1 354 322 319 341 341 342 328 299 329 40 24 351 355 1 61 106 111 110 109 107 100 95 88 83 78 73 71 67 63 60 56 54 50 47 43 39 34 29 25 23 24 22 20 18 17 17 16 16 16 16 14 13 15 11 10 10 9 8 8 9 9 9 10 8 8 6 2 1 0 358 356 357 357 357 358 359 359 356 353 355 357 354 354 355 355 352 349 351 330
339 38 42 29 32 20 2 352 357 353 1 358 321 298 325 328 333 58 42 25 26 67 99 103 104 105 103 98 93 89 83 80 76 72 71 67 63 59 55 51 46 43 38 34 29 26 22 20 21 20 18 15 13 13 14 15 15 15 13 11 11 8 7 5 3 3 2 3 3 4 5 4 3 1 357 356 353 352 351 352 351 351 351 352 350 348 348 348 348 348 346 345 346 345 341 339 332
38 22 22 25 69 23 360 1 18 26 13 348 283 316 1 10 38 64 40 43 76 89 97 99 102 101 96 93 90 87 83 78 74 71 68 64 62 58 52 47 40 37 34 29 24 22 19 17 18 17 15 13 10 10 11 13 12 11 10 8 6 4 3 360 357 357 357 357 358 358 359 359 357 354 351 350 348 346 345 345 346 345 345 344 342 341 341 338 337 339 338 336 335 337 336 330 324
25 1 13 21 51 14 4 24 19 16 10 354 319 334 18 90 77 63 49 66 92 94 97 99 100 97 92 92 87 85 81 76 72 69 66 62 57 52 46 40 35 32 28 25 22 19 16 15 16 14 12 11 9 9 10 9 8 7 5 3 2 0 357 354 353 352 352 351 352 352 353 352 350 346 344 343 342 341 339 340 340 338 338 339 337 336 333 330 328 326 327 327 325 324 324 321 318
354 348 40 31 30 38 18 26 20 359 14 15 338 335 19 111 51 59 70 88 101 99 99 98 95 93 91 90 85 82 77 72 69 66 63 57 50 45 39 31 27 25 22 21 19 15 12 12 12 11 9 9 8 8 7 6 5 3 1 359 358 357 353 349 348 347 347 346 346 347 348 347 343 340 338 338 336 333 332 332 331 329 331 332 330 328 324 322 320 316 315 315 314 312 311 311 310
305 335 180 66 9 134 23 16 13 348 6 22 334 316 48 72 27 74 105 109 108 105 103 99 95 94 91 88 82 77 72 68 66 62 57 51 45 40 34 27 20 16 16 16 13 9 7 7 7 6 6 5 5 5 4 2 2 360 357 356 354 353 350 347 344 342 342 341 340 342 343 342 340 336 334 334 331 327 324 322 321 319 319 319 317 314 309 309 310 309 309 307 305 304 302 300 300
121 356 112 12 343 79 21 10 1 344 349 359 323 287 67 54 46 107 127 117 112 110 107 102 98 96 90 86 80 74 70 66 62 58 53 48 43 36 30 24 17 12 10 8 5 3 2 1 359 359 359 359 0 0 360 359 358 357 355 353 350 348 345 341 339 337 336 335 335 335 336 337 336 332 330 330 328 323 319 317 313 310 308 307 306 303 301 301 299 299 303 304 301 300 297 295 294
6 351 36 355 334 36 18 7 347 343 355 353 331 307 28 59 74 122 135 129 126 117 110 107 101 96 90 85 80 74 68 64 61 56 50 45 38 31 25 19 14 9 2 357 357 357 356 353 350 349 350 351 353 352 352 353 354 355 354 352 349 346 342 336 333 330 328 327 326 326 327 329 328 327 325 325 324 320 316 313 310 307 305 304 303 299 297 295 290 287 290 294 293 292 291 290 289
355 320 315 359 348 354 3 11 347 350 11 343 336 320 359 74 75 130 150 145 135 121 114 110 101 97 93 87 81 75 68 63 60 54 47 40 31 24 18 13 9 4 357 348 346 347 346 344 341 339 340 343 344 347 347 347 350 353 353 351 349 346 341 335 332 328 325 322 320 318 318 320 321 319 318 318 318 316 313 310 307 305 305 306 301 295 293 289 285 280 278 282 282 282 281 280 281
21 345 350 357 355 341 351 48 15 357 334 327 339 325 332 76 58 130 163 152 137 124 115 111 105 102 96 88 82 76 72 64 57 50 42 33 25 17 11 5 359 356 351 342 334 335 335 333 331 327 326 331 332 333 337 339 342 344 344 344 344 344 341 336 334 331 326 323 319 316 314 315 316 313 312 313 312 310 308 305 302 301 303 303 297 291 289 284 279 275 273 274 275 277 276 276 276
33 19 360 345 350 342 344 19 58 8 329 332 343 325 321 59 39 55 169 156 137 124 117 115 110 105 97 87 80 74 68 59 49 42 33 23 17 8 360 355 350 344 340 335 325 323 324 320 317 315 312 315 317 317 322 326 328 330 331 333 337 339 339 336 335 331 328 326 322 317 315 314 314 312 311 310 308 306 303 299 296 297 298 296 292 288 284 279 277 275 273 271 270 272 273 274 274
358 6 357 344 343 331 334 346 357 6 333 328 326 321 348 43 26 35 165 156 137 129 124 121 116 106 98 86 73 64 53 46 36 27 19 9 3 355 346 338 335 328 323 322 315 311 312 310 305 301 299 299 302 305 310 314 316 318 318 320 326 329 331 333 334 333 331 328 324 319 316 314 312 310 309 307 305 303 300 295 291 292 293 291 287 284 281 278 275 273 273 271 268 269 270 271 272
337 342 343 340 330 324 334 330 335 360 337 319 325 326 8 42 33 53 139 150 138 134 128 122 116 105 97 78 59 51 38 30 22 8 357 350 343 337 331 321 317 313 308 308 307 304 303 302 300 295 293 292 296 300 303 306 308 310 310 310 316 319 321 325 329 329 329 328 325 319 315 311 308 305 304 302 301 299 296 291 287 287 289 289 284 280 279 277 274 272 272 271 269 267 267 269 270
319 321 323 326 323 333 335 320 331 12 337 322 338 332 353 38 48 71 126 146 138 134 129 123 115 102 89 62 43 31 13 8 1 343 331 330 325 318 313 307 304 304 304 304 304 304 302 302 301 299 297 293 295 301 301 300 301 304 306 306 311 314 314 317 321 321 321 321 319 317 314 310 307 305 304 302 300 297 293 286 283 284 285 284 281 278 276 273 274 274 274 272 270 267 266 265 266
302 313 324 325 325 333 329 321 333 24 339 326 341 335 22 53 56 88 124 140 136 136 127 116 110 94 65 40 21 4 355 342 325 324 319 311 308 306 303 301 299 299 302 305 305 305 306 306 303 301 301 295 291 295 295 293 293 296 300 303 307 310 309 310 311 312 312 310 310 311 310 310 308 306 304 302 299 296 290 283 280 282 282 279 275 275 274 273 274 275 274 271 268 267 266 262 261
321 336 336 334 339 333 320 305 325 359 339 324 336 328 62 79 73 103 126 133 128 130 124 113 99 77 42 19 3 349 339 321 309 312 309 300 297 297 296 293 292 296 303 308 310 309 308 307 302 298 297 293 286 284 284 286 286 288 293 299 302 304 304 303 303 303 303 301 302 303 304 306 305 302 302 300 296 294 289 281 278 279 278 275 273 273 273 273 271 269 267 267 265 264 264 261 257
350 357 345 347 347 337 324 303 327 342 320 321 337 319 67 97 98 106 113 112 103 101 109 102 75 44 10 357 349 335 325 316 308 304 301 297 295 294 295 297 300 307 312 315 320 322 317 309 302 296 291 287 282 274 272 277 281 283 287 292 297 298 297 295 295 295 294 294 295 297 299 300 299 297 298 297 293 292 288 281 276 275 274 271 271 272 271 269 267 264 261 262 263 262 262 261 254
15 12 355 351 347 338 329 324 327 323 296 310 316 291 123 113 116 105 101 100 97 97 95 77 34 5 342 330 323 317 314 309 304 301 300 302 304 305 310 317 319 321 322 323 326 325 320 313 306 302 297 291 282 269 265 270 276 281 285 289 292 292 290 289 289 288 288 290 293 296 297 296 295 293 292 290 287 286 285 280 274 270 268 268 269 270 268 267 264 263 260 258 259 260 260 259 253
31 30 5 343 337 330 315 316 320 314 280 308 316 306 106 140 145 117 111 111 102 100 85 45 358 339 325 314 310 308 303 299 299 304 312 317 320 321 323 325 328 329 327 326 324 321 318 315 311 310 308 302 290 274 267 271 277 283 289 293 294 293 293 292 292 294 295 294 295 295 296 296 294 291 287 284 281 280 279 276 271 266 263 263 265 266 266 265 263 260 259 257 255 257 258 259 255
27 37 6 331 321 318 314 321 322 323 4 36 341 336 355 150 152 131 131 127 106 90 48 6 342 331 329 325 321 320 314 312 314 318 324 325 324 325 327 332 333 330 326 324 323 320 318 317 315 315 312 308 300 285 274 277 284 289 294 297 297 296 296 296 297 300 300 299 298 297 296 296 294 289 284 281 279 277 276 272 266 261 259 259 260 262 262 262 261 258 257 256 255 255 257 258 255
8 7 345 318 312 315 323 328 325 335 342 351 13 354 333 330 122 132 140 130 112 83 22 357 344 337 335 334 333 332 330 328 325 325 326 323 323 329 334 336 332 328 329 330 329 327 325 324 322 320 317 313 306 294 285 290 294 294 295 296 296 293 294 295 297 299 299 298 299 299 297 296 295 288 281 280 279 276 274 271 264 257 256 258 258 258 259 260 259 257 256 253 253 252 252 254 254
360 348 331 316 315 322 330 323 313 334 326 328 47 9 326 330 61 129 141 130 128 77 12 356 348 346 342 340 337 335 333 330 327 326 326 325 330 337 336 333 333 335 336 335 334 331 330 328 325 325 324 321 313 300 295 302 302 299 298 298 296 294 294 296 297 297 296 296 298 298 297 297 295 288 281 280 280 278 275 271 265 258 255 256 255 254 255 256 255 255 252 250 250 250 250 252 253
353 331 317 308 311 317 316 301 302 318 316 339 5 354 326 330 53 134 158 138 114 1 1 352 347 347 344 342 337 334 331 329 327 326 326 331 338 338 335 334 336 338 337 335 334 331 328 326 324 325 325 324 318 310 308 312 312 308 303 301 298 296 297 298 298 297 296 295 295 295 296 296 292 286 281 279 283 289 288 276 264 256 254 255 253 253 254 253 252 251 249 248 248 249 249 251 253
330 305 300 295 295 308 306 310 325 319 323 350 353 351 333 326 43 130 187 130 33 350 351 351 347 346 343 341 337 332 329 327 326 326 329 336 337 334 335 337 336 336 336 335 333 331 331 332 334 335 336 338 337 334 331 329 326 319 310 304 302 300 301 300 299 298 298 296 295 295 295 291 286 282 279 279 284 292 294 289 272 259 256 257 257 255 253 252 251 250 249 247 247 248 250 251 254
300 300 319 309 281 314 307 247 329 324 334 356 353 347 332 321 10 69 73 100 48 354 351 349 346 344 342 339 334 329 327 327 326 328 334 336 332 332 336 337 335 335 335 336 335 337 340 341 344 344 341 343 341 337 334 328 324 317 310 306 304 302 302 300 298 298 299 298 297 297 294 288 283 279 277 278 283 284 283 284 282 273 267 264 262 259 255 253 252 251 248 246 245 247 249 252 254
315 341 351 346 342 339 319 280 342 328 337 352 351 342 329 327 349 77 105 119 96 356 345 342 343 344 340 334 331 329 329 328 328 334 336 331 329 334 337 336 335 333 333 337 339 340 339 339 340 336 331 334 335 331 327 322 318 313 308 305 302 301 300 300 299 299 300 300 299 297 293 289 285 281 279 278 278 279 277 275 275 276 275 270 266 263 260 257 254 252 249 247 247 248 250 252 254
4 6 3 1 354 346 345 345 341 332 334 340 341 331 320 341 6 125 142 158 165 325 328 339 341 339 337 332 331 331 330 330 335 338 331 329 332 337 338 336 334 330 329 335 336 334 334 333 331 326 326 334 335 329 324 317 314 311 308 305 304 304 304 304 303 303 302 301 298 296 293 290 287 283 282 279 276 277 278 278 275 275 276 274 271 269 270 269 262 256 253 251 252 252 252 252 254
15 12 6 3 352 341 340 338 334 325 324 335 348 335 313 337 1 152 161 148 236 259 298 340 335 332 333 332 332 330 330 336 339 331 327 332 339 339 339 336 331 328 331 338 337 332 329 325 324 325 328 333 331 327 323 319 316 314 312 311 312 313 311 309 306 303 301 300 298 296 294 292 289 286 284 281 280 279 278 280 279 277 275 274 272 270 271 273 270 264 259 257 257 256 256 255 256
27 16 356 357 6 338 321 324 326 317 315 334 13 19 331 336 351 154 151 138 252 258 298 332 330 331 332 331 333 332 335 340 333 327 332 340 342 339 336 331 329 333 340 342 338 332 328 324 327 333 332 331 330 327 325 323 321 321 321 321 319 317 314 310 305 301 301 301 300 298 296 292 289 286 285 283 282 281 280 279 279 278 276 275 274 270 268 267 266 263 261 260 260 260 260 259 259
15 357 350 354 341 306 287 262 252 290 311 329 4 359 337 344 85 128 153 224 283 315 327 332 334 336 334 333 335 336 340 338 332 335 342 342 341 337 332 330 335 346 345 342 339 337 335 335 337 334 330 330 330 329 327 326 325 326 324 321 317 315 312 308 304 301 301 300 299 296 293 290 288 286 285 285 284 282 279 276 275 274 275 277 278 275 271 266 262 260 261 262 263 264 264 263 262
350 348 351 336 307 299 319 281 256 302 324 331 335 331 331 340 72 130 223 290 327 338 335 335 337 337 336 335 337 339 338 335 335 343 342 339 337 335 334 342 352 350 342 340 342 341 338 338 339 335 331 330 330 331 332 331 328 324 320 318 317 315 313 309 305 302 301 300 297 294 291 289 287 287 286 286 285 283 278 275 274 274 273 274 275 274 271 267 263 261 261 263 264 265 265 263 262
346 359 341 313 235 171 11 326 318 334 331 326 332 329 328 340 347 328 325 333 340 340 338 338 337 338 337 336 339 340 336 334 337 340 338 337 335 334 342 354 350 344 340 338 341 339 332 329 334 335 332 331 332 335 334 330 324 320 319 319 318 317 315 311 306 304 302 301 299 296 294 291 289 288 287 286 284 281 278 276 274 273 273 272 272 270 267 264 262 260 260 262 263 262 262 261 259
46 42 353 342 324 342 353 341 338 340 328 318 330 329 327 338 336 332 343 344 340 341 341 338 338 339 338 337 340 339 336 336 337 336 337 338 337 336 339 343 341 340 340 338 337 335 330 328 331 332 331 331 333 332 328 324 321 319 318 319 319 318 315 311 308 305 304 301 300 298 295 293 291 289 287 285 284 281 279 277 275 274 274 272 270 268 264 262 260 259 259 260 260 259 258 258 257
104 112 41 40 356 316 317 331 337 336 321 314 325 325 321 335 336 341 349 347 344 343 340 337 337 338 337 339 339 337 338 339 336 337 338 339 339 336 334 337 339 339 338 337 334 332 331 330 330 330 331 331 329 327 324 323 323 322 321 320 319 317 315 313 309 308 306 303 301 300 297 295 292 290 288 286 284 281 279 278 276 275 274 273 272 268 264 259 257 257 257 258 259 258 257 257 256
22 30 22 22 13 224 222 309 90 326 315 316 320 314 307 329 340 352 355 351 348 343 337 335 336 336 337 340 338 336 339 338 337 337 336 337 338 336 333 335 338 337 336 335 333 333 332 331 329 330 331 329 328 327 327 327 326 324 322 321 320 319 317 315 312 310 307 304 302 300 298 297 294 291 288 286 284 283 281 279 278 276 274 273 271 269 265 259 256 255 256 258 258 257 256 257 257
24 15 27 19 13 352 334 341 69 214 300 290 291 294 298 325 353 9 1 355 347 341 336 334 335 336 337 339 339 338 339 338 338 336 335 336 337 336 335 336 336 335 333 334 336 336 334 332 332 330 329 329 329 330 329 328 326 324 323 322 321 321 319 317 314 311 308 306 304 302 300 298 295 292 289 287 285 283 281 279 278 276 275 272 270 268 265 259 256 255 256 257 256 256 255 255 254